This is the latest recevied weather packets stored in our database for station/object APPOWX. If no packets are shown the sender has not sent any weather packets the latest 10 day(s).
| Time | Temp. | Humidity | Pressure | Rain* | Wind** | Luminosity | Snow |
|---|---|---|---|---|---|---|---|
| 1777311607 | 17.22° C | 49% | 1026.3 hPa | 0 mm | - | - | - |
| 1777311546 | 17.78° C | 46% | 1026.2 hPa | 0 mm | - | - | - |
| 1777311486 | 17.78° C | 46% | 1026.3 hPa | 0 mm | - | - | - |
| 1777311426 | 17.22° C | 48% | 1026.2 hPa | 0 mm | - | - | - |
| 1777311366 | 17.78° C | 49% | 1026.1 hPa | 0 mm | - | - | - |
| 1777311306 | 18.89° C | 52% | 1026.2 hPa | 0 mm | - | - | - |
| 1777311246 | 17.78° C | 46% | 1026.3 hPa | 0 mm | - | - | - |
| 1777311186 | 17.22° C | 47% | 1026 hPa | 0 mm | - | - | - |
| 1777311125 | 18.33° C | 52% | 1026.1 hPa | 0 mm | - | - | - |
| 1777311066 | 18.33° C | 51% | 1026.1 hPa | 0 mm | - | - | - |
| 1777311006 | 18.33° C | 49% | 1026.3 hPa | 0 mm | - | - | - |
| 1777310946 | 18.33° C | 51% | 1026.2 hPa | 0 mm | - | - | - |
| 1777310886 | 17.78° C | 49% | 1026.2 hPa | 0 mm | - | - | - |
| 1777310825 | 17.22° C | 53% | 1026 hPa | 0 mm | - | - | - |
| 1777310764 | 17.78° C | 51% | 1026.2 hPa | 0 mm | - | - | - |
| 1777310705 | 18.33° C | 50% | 1026.2 hPa | 0 mm | - | - | - |
| 1777310645 | 17.22° C | 54% | 1026.2 hPa | 0 mm | - | - | - |
| 1777310584 | 17.22° C | 50% | 1026.2 hPa | 0 mm | - | - | - |
| 1777310524 | 17.78° C | 52% | 1026.2 hPa | 0 mm | - | - | - |
| 1777310464 | 17.78° C | 50% | 1026.2 hPa | 0 mm | - | - | - |
| 1777310403 | 17.22° C | 49% | 1026.1 hPa | 0 mm | - | - | - |
| 1777310344 | 17.22° C | 49% | 1026.3 hPa | 0 mm | - | - | - |
| 1777310283 | 17.78° C | 53% | 1026.2 hPa | 0 mm | - | - | - |
| 1777310224 | 17.78° C | 51% | 1026.3 hPa | 0 mm | - | - | - |
| 1777310164 | 17.78° C | 48% | 1026.3 hPa | 0 mm | - | - | - |
* Rain latest hour (hover to see other rain measurements)
** Current wind speed in m/s (hover to see current wind gust speed)